Weather in Ozerki

Russia / Republic of Bashkortostan     56°02′17″N   57°26′03″E
temp.,
°C
wind,
m/s
gust,
m/s
humid.,
%
clouds,
%
prec.,
mm/h
press.,
hPa
HPBL,
m
2 march, tue
tue223:00−17wsw259998 0.3 1017132
02:00−18wsw389899 0.1 1016246
05:00−19sw3109899 0.1 1015307
08:00−19sw41396100 0.0 1012365
11:00−15ssw61389100 0.0 1010424
14:00−12ssw61592100 0.2 1005518
17:00−12sw61393100 0.9 1003615
20:00−12sw61589100 0.4 1001616
3 march, wed
wed323:00−11ssw61590100 0.6 1000616
02:00−9ssw6168897 0.1 997574
05:00−6ssw6159194 0.2 997577
08:00−4wsw6139593 1.0 996801
11:00−4wsw5109497 3.7 997746
14:00−2wsw5991100 0.4 997794
17:00−3wsw4993100 0.8 998683
20:00−5wsw4995100 0.3 999449
4 march, thu
thu423:00−5sw41095100 0.6 999474
02:00−7sw41094100 0.4 999464
05:00−7wsw499599 1.0 1000447
08:00−9w41094100 0.4 1001441
11:00−10w4993100 0.7 1003460
14:00−8wsw5990100 0.1 1003723
17:00−7wsw51090100 0.4 1003814
20:00−8sw51292100 0.2 1003646
5 march, fri
fri523:00−8sw61492100 0.4 1002722
02:00−8ssw71692100 0.5 998850
05:00−4sw91892100 1.8 9951236
08:00−3sw81794100 3.2 9941310
11:00−2wsw91891100 5.9 9961727
14:00−2wsw9177367 1.6 9991503
17:00−4wsw6128233 1.6 10021098
20:00−7wsw4119479 0.1 1005558
6 march, sat
sat623:00−10wsw499689 0.2 1008343
02:00−12wsw3898100 0.1 1009210
05:00−16wsw22100100 0.2 101131
08:00−17sw1199100 0.0 101120
11:00−10ese1388100 0.1 1009242
14:00−8e4895100 0.8 1003372
17:00−5ese4995100 4.1 998435
20:00−1sw61496100 4.8 9951168